Hattiesburg, MS

9:48 PM CST on December 12, 2017 (GMT -0600)
Chain Municipal

Weather History for KHBG - August, 2013

Change the Weather History Date:

Tuesday, August 6, 2013

  Actual Average Record
Temperature  
Mean Temperature 84 °F 82 °F  
Max Temperature 94 °F 93 °F 99 °F (1951)
Min Temperature 74 °F 71 °F 62 °F (1950)
Degree Days  
Heating Degree Days 0 0  
Month to date heating degree days 0 0  
Since 1 June heating degree days 0 0  
Since 1 July heating degree days 0 0  
Cooling Degree Days 19 17  
Month to date cooling degree days 111 102  
Year to date cooling degree days 1391 1462  
Since 1 June cooling degree days 1049 1047  
Growing Degree Days 34 (Base 50)    
Moisture  
Dew Point 74 °F    
Average Humidity 72    
Maximum Humidity 94    
Minimum Humidity 49    
Precipitation  
Precipitation 0.32 in 0.14 in 1.46 in (2012)
Month to date precipitation 1.82 0.91  
Year to date precipitation 49.96 38.34  
Sea Level Pressure  
Sea Level Pressure 29.96 in    
Wind  
Wind Speed 3 mph (NNE)    
Max Wind Speed 16 mph    
Max Gust Speed 31 mph    
Visibility 9 miles    
Events Rain    
T = Trace of Precipitation, MM = Missing Value Source: NWS Daily Summary

Daily Weather History Graph

Daily Weather History Graph

Search for Another Location

Airport or City:

Trip Planner

Search our weather history database for the weather conditions in past years. The results will help you decide how hot, cold, wet, or windy it might be!

Date:

Astronomy

Aug. 06, 2013 Rise Set
Actual Time 6:17 AM CDT 7:48 PM CDT
Civil Twilight 5:51 AM CDT 8:14 PM CDT
Nautical Twilight 5:19 AM CDT 8:45 PM CDT
Astronomical Twilight 4:47 AM CDT 9:17 PM CDT
Moon 6:04 AM CDT (8/6) 7:28 PM CDT (8/6)
Length of Visible Light 14h 23m
Length of Day
13h 31m
Waning Crescent, 0% of the Moon is Illuminated
Aug 6
Waning Crescent
Aug 6
New
Aug 14
First Quarter
Aug 20
Full
Aug 28
Last Quarter

Hourly Weather History & Observations

Time (CDT) Temp. Heat Index Dew Point Humidity Pressure Visibility Wind Dir Wind Speed Gust Speed Precip Events Conditions
12:53 AM 75.9 °F - 73.0 °F 91% 29.96 in 10.0 mi Calm Calm - N/A   Mostly Cloudy
1:53 AM 75.9 °F - 73.0 °F 91% 29.96 in 10.0 mi Calm Calm - N/A   Scattered Clouds
2:53 AM 75.0 °F - 73.9 °F 96% 29.95 in 8.0 mi Calm Calm - N/A   Scattered Clouds
3:53 AM 75.0 °F - 73.0 °F 94% 29.95 in 9.0 mi Calm Calm - N/A   Partly Cloudy
4:53 AM 75.0 °F - 73.0 °F 94% 29.96 in 7.0 mi Calm Calm - N/A   Clear
5:53 AM 75.0 °F - 73.0 °F 94% 29.97 in 8.0 mi Calm Calm - N/A   Clear
6:53 AM 75.0 °F - 73.0 °F 94% 29.99 in 8.0 mi Calm Calm - N/A   Clear
7:53 AM 78.1 °F - 73.9 °F 87% 30.00 in 10.0 mi West 3.5 mph - N/A   Clear
8:53 AM 82.0 °F 88.6 °F 75.0 °F 79% 30.01 in 10.0 mi West 8.1 mph - N/A   Clear
9:53 AM 86.0 °F 96.0 °F 75.9 °F 72% 30.01 in 10.0 mi NNW 6.9 mph - N/A   Clear
10:53 AM 87.1 °F 96.3 °F 75.0 °F 67% 30.00 in 10.0 mi NW 3.5 mph - N/A   Clear
11:53 AM 90.0 °F 100.2 °F 75.0 °F 61% 29.99 in 10.0 mi NNW 4.6 mph - N/A   Clear
12:53 PM 91.9 °F 101.3 °F 73.9 °F 55% 29.98 in 10.0 mi North - - N/A   Clear
1:53 PM 91.9 °F 101.3 °F 73.9 °F 55% 29.97 in 10.0 mi North 3.5 mph - N/A   Mostly Cloudy
2:11 PM 84.2 °F 92.3 °F 75.2 °F 74% 29.97 in 1.8 mi ENE 9.2 mph 18.4 mph 0.13 in Rain Heavy Rain
2:19 PM 84.2 °F 92.3 °F 75.2 °F 74% 29.97 in 3.0 mi East 3.5 mph - 0.13 in Rain Light Rain
2:29 PM 84.2 °F 92.3 °F 75.2 °F 74% 29.97 in 1.8 mi East 12.7 mph - 0.31 in Rain Heavy Rain
2:38 PM 87.8 °F 93.8 °F 71.6 °F 58% 29.96 in 3.0 mi ESE 4.6 mph - 0.32 in Rain Light Rain
2:53 PM 89.1 °F 101.4 °F 77.0 °F 67% 29.94 in 10.0 mi Calm Calm - 0.32 in   Mostly Cloudy
3:53 PM 91.9 °F 101.3 °F 73.9 °F 55% 29.92 in 10.0 mi Calm Calm - N/A   Clear
4:53 PM 93.9 °F 103.4 °F 73.0 °F 51% 29.91 in 10.0 mi WNW 6.9 mph - N/A   Partly Cloudy
5:53 PM 93.0 °F 100.7 °F 72.0 °F 50% 29.91 in 10.0 mi Calm Calm - N/A   Clear
6:53 PM 91.0 °F 102.9 °F 75.9 °F 61% 29.92 in 10.0 mi ESE 3.5 mph - N/A   Clear
7:53 PM 88.0 °F 103.1 °F 79.0 °F 75% 29.94 in 10.0 mi Calm Calm - N/A   Clear
8:53 PM 84.0 °F 97.3 °F 80.1 °F 88% 29.95 in 10.0 mi Calm Calm - N/A   Clear
9:53 PM 80.1 °F 84.2 °F 73.0 °F 79% 29.98 in 10.0 mi East 11.5 mph 20.7 mph N/A   Partly Cloudy
10:53 PM 79.0 °F - 72.0 °F 79% 29.98 in 10.0 mi SSE 8.1 mph - N/A   Clear
11:53 PM 78.1 °F - 72.0 °F 81% 29.95 in 10.0 mi Calm Calm - N/A   Clear